Raleigh-Durham Airport, NC

4:48 AM EST on November 22, 2017 (GMT -0500)
Raleigh-Durham International

Weather History for KRDU - April, 2012

Change the Weather History Date:

Thursday, April 19, 2012

  Actual Average Record
Temperature  
Mean Temperature 58 °F 61 °F  
Max Temperature 63 °F 73 °F 93 °F (1941)
Min Temperature 52 °F 49 °F 29 °F (2001)
Degree Days  
Heating Degree Days 7 6  
Month to date heating degree days 127 142  
Since 1 July heating degree days 2453 3138  
Cooling Degree Days 0 2  
Month to date cooling degree days 26 25  
Year to date cooling degree days 74 37  
Growing Degree Days 8 (Base 50)    
Moisture  
Dew Point 53 °F    
Average Humidity 83    
Maximum Humidity 93    
Minimum Humidity 72    
Precipitation  
Precipitation T in 0.10 in 1.71 in (1988)
Month to date precipitation 1.15 1.91  
Year to date precipitation 10.41 12.75  
Snow  
Snow 0.00 in 0.00 in T in (1983)
Month to date snowfall 0.0 0.1  
Since 1 July snowfall 0.9 6.1  
Snow Depth 0.00 in    
Sea Level Pressure  
Sea Level Pressure 30.07 in    
Wind  
Wind Speed 4 mph (NNE)    
Max Wind Speed 10 mph    
Max Gust Speed 21 mph    
Visibility 9 miles    
Events Rain    
T = Trace of Precipitation, MM = Missing Value Source: NWS Daily Summary

Daily Weather History Graph

Daily Weather History Graph

Search for Another Location

Airport or City:

Trip Planner

Search our weather history database for the weather conditions in past years. The results will help you decide how hot, cold, wet, or windy it might be!

Date:

Astronomy

Apr. 19, 2012 Rise Set
Actual Time 6:36 AM EDT 7:52 PM EDT
Civil Twilight 6:09 AM EDT 8:19 PM EDT
Nautical Twilight 5:38 AM EDT 8:50 PM EDT
Astronomical Twilight 5:04 AM EDT 9:24 PM EDT
Moon 5:27 AM EDT (4/19) 6:39 PM EDT (4/19)
Length of Visible Light 14h 09m
Length of Day
13h 16m
Waning Crescent, 2% of the Moon is Illuminated
Apr 19
Waning Crescent
Apr 21
New
Apr 29
First Quarter
May 5
Full
May 12
Last Quarter

Hourly Weather History & Observations

Time (EDT) Temp. Dew Point Humidity Pressure Visibility Wind Dir Wind Speed Gust Speed Precip Events Conditions
12:51 AM 55.0 °F 53.1 °F 93% 30.08 in 10.0 mi NE 6.9 mph - 0.00 in   Overcast
1:51 AM 55.0 °F 52.0 °F 89% 30.06 in 10.0 mi NE 5.8 mph - N/A   Overcast
2:51 AM 54.0 °F 51.1 °F 90% 30.05 in 10.0 mi NNE 5.8 mph - 0.00 in Rain Light Rain
3:51 AM 53.1 °F 51.1 °F 93% 30.06 in 10.0 mi NNE 4.6 mph - 0.00 in   Overcast
4:51 AM 52.0 °F 50.0 °F 93% 30.06 in 9.0 mi NE 6.9 mph - 0.00 in Rain Light Rain
5:24 AM 51.8 °F 50.0 °F 94% 30.06 in 10.0 mi NNE 4.6 mph - 0.00 in   Overcast
5:51 AM 53.1 °F 50.0 °F 89% 30.05 in 10.0 mi NNE 5.8 mph - 0.00 in   Overcast
6:51 AM 53.1 °F 51.1 °F 93% 30.08 in 5.0 mi Calm Calm - N/A   Overcast
7:51 AM 53.1 °F 51.1 °F 93% 30.09 in 3.0 mi NNE 4.6 mph - N/A   Overcast
8:51 AM 54.0 °F 51.1 °F 90% 30.09 in 4.0 mi NE 5.8 mph - N/A   Overcast
9:51 AM 54.0 °F 51.1 °F 90% 30.11 in 3.0 mi NNE 6.9 mph - N/A   Overcast
10:51 AM 55.9 °F 52.0 °F 87% 30.11 in 6.0 mi NNE 10.4 mph - N/A   Overcast
11:29 AM 57.2 °F 53.6 °F 88% 30.11 in 8.0 mi NE 6.9 mph - N/A   Overcast
11:51 AM 57.9 °F 52.0 °F 81% 30.10 in 9.0 mi NE 8.1 mph - N/A   Overcast
12:33 PM 60.8 °F 51.8 °F 72% 30.10 in 10.0 mi NE 4.6 mph - N/A   Overcast
12:51 PM 59.0 °F 52.0 °F 78% 30.10 in 10.0 mi North 4.6 mph - N/A   Overcast
1:51 PM 60.1 °F 53.1 °F 78% 30.09 in 10.0 mi Variable 3.5 mph - N/A   Overcast
2:51 PM 60.8 °F 53.6 °F 77% 30.09 in 10.0 mi North 3.5 mph - N/A   Overcast
3:51 PM 62.1 °F 53.1 °F 72% 30.06 in 10.0 mi NE 4.6 mph - N/A   Overcast
4:51 PM 63.0 °F 53.1 °F 70% 30.05 in 10.0 mi North 3.5 mph - N/A   Overcast
5:51 PM 63.0 °F 54.0 °F 72% 30.04 in 10.0 mi Variable 4.6 mph - N/A   Overcast
6:51 PM 62.1 °F 53.1 °F 72% 30.04 in 10.0 mi NNE 3.5 mph - N/A   Overcast
7:51 PM 62.1 °F 54.0 °F 75% 30.04 in 10.0 mi Calm Calm - N/A   Mostly Cloudy
8:51 PM 60.1 °F 55.0 °F 83% 30.05 in 10.0 mi Calm Calm - N/A   Overcast
9:51 PM 60.1 °F 55.9 °F 86% 30.06 in 10.0 mi Calm Calm - N/A   Overcast
10:51 PM 60.1 °F 55.9 °F 86% 30.06 in 10.0 mi Calm Calm - N/A   Overcast
11:51 PM 59.0 °F 55.0 °F 87% 30.04 in 10.0 mi Calm Calm - N/A   Scattered Clouds